Regional Weather Roundup
Issued by NWS

Home | Current Version | Previous Version | Graphics & Text | Print | Product List | Glossary Off
Versions: 1 2 3 4 5 6 7 8 9 10 11 12 13 14 15 16 17 18 19 20 21 22 23 24 25 26 27 28 29 30 31 32 33 34 35 36 37 38 39 40 41 42 43 44 45 46 47 48 49 50

000
ASUS43 KMPX 260310
RWRMN
WEATHER ROUNDUP FOR MINNESOTA
NATIONAL WEATHER SERVICE TWIN CITIES/CHANHASSEN MN
1000 PM CDT FRI JUL 25 2014


NOTE: "FAIR" INDICATES FEW OR NO CLOUDS BELOW 12,000 FEET WITH NO
SIGNIFICANT WEATHER AND/OR OBSTRUCTIONS TO VISIBILITY. N/A MEANS
CURRENT SKY AND/OR WEATHER CONDITIONS ARE NOT AVAILABLE.

MNZ060>063-068>070-260400-
   Twin Cities Metro

CITY           SKY/WX    TMP DP  RH WIND       PRES   REMARKS
TWIN CITIES    CLOUDY    78  69  73 S3        29.78R
ST PAUL        CLOUDY    76  70  82 S3        29.78R
CRYSTAL        MOCLDY    78  68  71 SW6       29.76R
BLAINE         CLOUDY    77  72  83 CALM      29.77S
LAKEVILLE      CLOUDY    73  70  88 CALM      29.79R
EDEN PRAIRIE   CLOUDY    76  69  79 SW5       29.78R
SOUTH ST PAUL  CLOUDY    77  68  74 CALM      29.78R
LAKE ELMO      CLOUDY    73  70  88 SE5       29.79S
$$
MNZ001>005-007-008-013>017-022>024-027-028-260400-
   Northwest Minnesota

CITY           SKY/WX    TMP DP  RH WIND       PRES   REMARKS
BEMIDJI        PTCLDY    71  67  88 W7        29.77R
HALLOCK        CLEAR     66  57  72 W5        29.74S
ROSEAU         CLEAR     70  57  64 W5        29.75R
WARROAD        CLEAR     68  57  68 W6        29.74R
THIEF RVR FALL CLEAR     66  57  72 W6        29.78R
CROOKSTON      CLEAR     64  59  82 W7        29.78R
FOSSTON        CLEAR     63  54  72 CALM      29.80R
DETROIT LAKES  PTCLDY    68  57  68 NW7       29.82R
MOORHEAD       CLEAR     70  61  73 CALM      29.80R
PARK RAPIDS    CLEAR     68  66  93 W5        29.79R
$$
MNZ006-009>011-018-025>026-260400-
   North Central Minnesota

CITY           SKY/WX    TMP DP  RH WIND       PRES   REMARKS
BAUDETTE       PTCLDY    69  62  78 VRB3      29.73R
FLAG ISLAND    CLEAR     72  66  83 SW6       29.69S
INTL FALLS     PTCLDY    68  65  90 CALM      29.72F
WASKISH        PTCLDY    72  68  88 W3G16     29.74R
BIG FORK       CLEAR     66  64  94 SE1       29.76R
LONGVILLE      MOCLDY    70  68  94 CALM      29.77R
GRAND RAPIDS   CLOUDY    70  66  88 S6        29.77S
CRANE LAKE     MOCLDY    63  63 100 CALM      29.77R
ORR            CLOUDY    66  63  88 CALM      29.73F
COOK           PTCLDY    64  63  94 CALM      29.77R
$$
MNZ012-019>021-037-260400-
   Northeast Minnesota

CITY           SKY/WX    TMP DP  RH WIND       PRES   REMARKS
DULUTH         CLOUDY    68  64  87 S8        29.78R
ELY            MOCLDY    66  63  88 CALM      29.77R
HIBBING        CLOUDY    69  65  86 CALM      29.77R
EVELETH        CLOUDY    68  64  88 S5        29.78S
DULUTH HARBOR  MOCLDY    64  61  88 CALM      29.77S
TWO HARBORS    MOCLDY    66  61  82 CALM        N/A
SILVER BAY     PTCLDY    66  66 100 CALM      29.76S
GRAND MARAIS     N/A     52  52 100 CALM      29.76R
G MARAIS ARPRT CLOUDY    63  59  88 SW3       29.80S FOG
$$
MNZ029>031-032-039>041-046>048-054>057-064-260400-
   West Central Minnesota

CITY           SKY/WX    TMP DP  RH WIND       PRES   REMARKS
FERGUS FALLS   PTCLDY    70  66  88 CALM      29.79R
WHEATON        PTCLDY    68  66  94 SW3       29.81R
MORRIS         CLEAR     70  68  94 NW3       29.80R
ALEXANDRIA     CLEAR     70  67  90 W3        29.82R
ELBOW LAKE     FAIR      69  68  96 W3        29.80R
WADENA         PTCLDY    68  64  88 CALM      29.79R
GLENWOOD       CLEAR     70  66  88 W3        29.81R
APPLETON       CLEAR     72  66  83 NW3       29.80R
BENSON         CLEAR     70  66  88 CALM      29.79R
ORTONVILLE     CLEAR     72  66  83 CALM      29.81R
MADISON        CLEAR     72  70  94 W3        29.81R
WILLMAR        FAIR      73  70  88 CALM      29.80R
$$
MNZ033>034-036-042>043-049>051-058-059-260400-
   Central Minnesota

CITY           SKY/WX    TMP DP  RH WIND       PRES   REMARKS
ST CLOUD       CLOUDY    76  71  85 CALM      29.78R
SAUK CENTRE    FAIR      70  67  91 CALM      29.80R
PAYNESVILLE    HVY RAIN  71  69  93 CALM      29.80R
AITKIN         CLOUDY    73  68  83 CALM      29.77R
PINE RIVER     MOCLDY    72  66  83 CALM      29.81S
BRAINERD       CLOUDY    70  68  93 S3        29.79R
STAPLES        MOCLDY    72  66  83 SW3       29.79R
LONG PRAIRIE   FAIR      68  66  94 CALM      29.81R
LITTLE FALLS   PTCLDY    70  66  88 CALM      29.79R
LITCHFIELD     CLOUDY    79  73  83 NW5       29.79R
BUFFALO        CLOUDY    76  69  78 S3        29.79R
MAPLE LAKE     CLOUDY    76  73  90 CALM      29.80R
$$
MNZ037-044-045-052-053-260400-
   East Central Minnesota

CITY           SKY/WX    TMP DP  RH WIND       PRES   REMARKS
PRINCETON      CLOUDY    75  72  88 CALM      29.78R
MORA           CLOUDY    70  68  94 CALM      29.80R
CAMBRIDGE      CLEAR     75  64  69 CALM      29.77R
RUSH CITY      CLOUDY    72  68  88 SE3       29.79R
MOOSE LAKE     CLOUDY    72  66  83 CALM      29.77R
HINCKLEY       CLOUDY    72  70  94 SE3       29.79R
CLOQUET        CLOUDY    66  64  94 CALM      29.78S
MCGREGOR       CLOUDY    72  68  88 S5        29.78R
$$
MNZ071>073-080-081-089-090-097-098-260400-
   Southwest Minnesota

CITY           SKY/WX    TMP DP  RH WIND       PRES   REMARKS
MONTEVIDEO     PTCLDY    73  70  88 N3        29.80R
GRANITE FALLS  CLOUDY    75  71  86 NW3       29.81R
CANBY          CLEAR     71  68  90 CALM      29.83R
MARSHALL       CLOUDY    75  70  83 N6        29.81R
REDWOOD FALLS  CLOUDY    78  72  81 NW6       29.78R
OLIVIA         CLOUDY    77  72  83 NW5       29.79R
PIPESTONE      MOCLDY    75  72  88 NE6       29.84R
WINDOM         PTCLDY    75  70  83 S3        29.81R
WORTHINGTON    PTCLDY    73  72  94 SW6       29.84R
JACKSON        CLEAR     72  68  88 S5        29.83R
TRACY          CLOUDY    76  72  87 NW3       29.82R
SLAYTON        CLEAR     74  71  89 CALM      29.84R
$$
MNZ065>067-074>077-082>085-091>093-260400-
   South Central Minnesota

CITY           SKY/WX    TMP DP  RH WIND       PRES   REMARKS
MANKATO        MOCLDY    73  66  78 S5        29.80R
NEW ULM        PTCLDY    73  72  94 S5        29.79R
FAIRMONT       PTCLDY    72  61  68 S3        29.81R
GLENCOE        CLOUDY    76  68  76 S5        29.78R
FARIBAULT      MOCLDY    79  66  65 S5        29.80R
OWATONNA       MOCLDY    75  66  73 S6        29.80S
WASECA         CLOUDY    72  63  73 S5        29.82R
ALBERT LEA     CLOUDY    75  68  78 S3        29.81R
$$
MNZ078>079-086>088-094>096-260400-
   Southeast Minnesota

CITY           SKY/WX    TMP DP  RH WIND       PRES   REMARKS
ROCHESTER      CLOUDY    72  66  81 S10       29.84R
RED WING       DRIZZLE   73  70  88 SE5       29.78R
STANTON        MOCLDY    76  68  78 S3        29.78S
DODGE CENTER   CLOUDY    73  70  88 SW3       29.83R
WINONA         CLOUDY    73  66  78 S3        29.83R
AUSTIN         CLOUDY    73  68  83 S7        29.82R
PRESTON        CLOUDY    69  69  99 SE9       29.85R
$$
ABBREVIATIONS USED IN REMARKS
   TC - TEMPERATURES IN CELSIUS
  WCI - WIND CHILL INDEX
   HX - HEAT INDEX
  VSB - VISIBILITY
$$


USA.gov is the U.S. government's official web portal to all federal, state and local government web resources and services.